Details From KSMF - Sacramento Intl
To KCXP - Carson
Flight Number -
Tags decoded
Created
Modified
Stats Distance 93 nm / 173 km
Max Altitude 0 ft / 0 m
Waypoints 4
Social Downloads 1
Likes 0
Share VATSIM

Download

Looking for another format? Having issues loading an existing format? Contact us
Advertisement - Login to hide

Notes

Requested: KSMF AUDIO SWR KCXP

Route

KSMF AUDIO SWR KCXP

ID Type Via Altitude Latitude Longitude Leg Dist Tot Dist Heading (true) Name
O KSMF APT - 0 ft / 0 m 38.69543˚ -121.59077˚ - 0 nm - Sacramento Intl
AUDIO FIX - 0 ft / 0 m 38.94593˚ -121.04806˚ 29 nm 29 nm 59° / 60° -
SWR VOR - 0 ft / 0 m 39.18033˚ -120.26961˚ 38 nm 68 nm 69° / 69° SQUAW VALLEY VOR-DME
O KCXP APT - 0 ft / 0 m 39.19223˚ -119.73445˚ 24 nm 93 nm 88° / 89° Carson

Altitude Profile

Advertisement - Login to hide

KSMF

Details ICAO KSMF (SMF)
Name Sacramento Intl
Region United States
Timezone America/Los_Angeles (UTC-7.0)
Stats Elevation 27 ft / 8 m (AMSL)
Location 38.695431° -121.590769°
Runways 2
Magnetic Variation 13.529° E

METAR

KSMF 221953Z 18011KT 10SM CLR 24/12 A2983 RMK AO2 SLP100 T02390122

Decode

TAF

KSMF 221725Z 2218/2318 17011KT P6SM FEW200 FM222300 17015KT P6SM SCT200 FM231100 16011KT P6SM BKN100

Decode

Departure Runways

ID Width Length Bearing (true) Bearing (mag) Surface Threshold Offset Overrun Length
16L 151 ft / 46 m 8,618 ft / 2,627 m 180.73° 167.20° Concrete 499 ft / 152 m 256 ft / 78 m
16R 151 ft / 46 m 8,614 ft / 2,626 m 180.75° 167.22° Asphalt 499 ft / 152 m 171 ft / 52 m
34L 151 ft / 46 m 8,614 ft / 2,626 m 0.75° 347.22° Asphalt 499 ft / 152 m 157 ft / 48 m
34R 151 ft / 46 m 8,618 ft / 2,627 m 0.73° 347.20° Concrete 499 ft / 152 m 262 ft / 80 m

KCXP

Details ICAO KCXP
Name Carson
Region United States
Timezone America/Los_Angeles (UTC-7.0)
Stats Elevation 4,697 ft / 1,432 m (AMSL)
Location 39.192232° -119.734450°
Runways 1
Magnetic Variation 13.289° E

METAR

KCXP 222015Z AUTO 00000KT 10SM FEW070 17/07 A2996 RMK AO2

Decode

TAF

KCXP 221736Z 2218/2318 VRB03KT P6SM SCT060 SCT100 FM222000 08009KT P6SM VCSH BKN060 BKN110 FM230500 VRB03KT P6SM SCT090 BKN200

Decode

Destination Runways

ID Width Length Bearing (true) Bearing (mag) Surface Threshold Offset Overrun Length
09 75 ft / 23 m 5,912 ft / 1,802 m 106.65° 93.36° Asphalt 0 ft / 0 m 0 ft / 0 m
27 75 ft / 23 m 5,912 ft / 1,802 m 286.67° 273.38° Asphalt 0 ft / 0 m 0 ft / 0 m

Popular Alternatives